, TX

(GMT )
Ingleside

Weather History for KTFP - September, 2012

Change the Weather History Date:

Wednesday, September 5, 2012

  Actual Average Record
Temperature  
Mean Temperature 88 °F -  
Max Temperature 95 °F - - ()
Min Temperature 82 °F - - ()
Cooling Degree Days 24    
Growing Degree Days 38 (Base 50)    
Moisture  
Dew Point 75 °F    
Average Humidity 67    
Maximum Humidity 81    
Minimum Humidity 42    
Precipitation  
Precipitation 0.00 in - - ()
Sea Level Pressure  
Sea Level Pressure 29.87 in    
Wind  
Wind Speed 12 mph (SSE)    
Max Wind Speed 20 mph    
Max Gust Speed 25 mph    
Visibility 10 miles    
Events      
Averages and records for this station are not official NWS values.
T = Trace of Precipitation, MM = Missing Value Source: NWS Daily Summary

Daily Weather History Graph

Daily Weather History Graph

Search for Another Location

Airport or City:

Trip Planner

Search our weather history database for the weather conditions in past years. The results will help you decide how hot, cold, wet, or windy it might be!

Date:

Astronomy

Sep. 05, 2012 Rise Set
Actual Time 7:09 AM CDT 7:44 PM CDT
Civil Twilight 6:45 AM CDT 8:08 PM CDT
Nautical Twilight 6:18 AM CDT 8:35 PM CDT
Astronomical Twilight 5:49 AM CDT 9:04 PM CDT
Moon 10:48 PM CDT (9/5) 11:43 AM CDT (9/5)
Length of Visible Light 13h 22m
Length of Day
12h 34m
Waning Gibbous, 76% of the Moon is Illuminated
Sep 5
Waning Gibbous
Sep 8
Last Quarter
Sep 15
New
Sep 22
First Quarter
Sep 29
Full

Hourly Weather History & Observations

Time (CDT) Temp. Heat Index Dew Point Humidity Pressure Visibility Wind Dir Wind Speed Gust Speed Precip Events Conditions
12:15 AM 83.8 °F 92.1 °F 75.4 °F 76% 29.90 in 10.0 mi South 12.7 mph 19.6 mph N/A   Clear
12:35 AM 83.8 °F 92.5 °F 75.9 °F 77% 29.90 in 10.0 mi South 10.4 mph - N/A   Scattered Clouds
12:55 AM 83.7 °F 92.0 °F 75.9 °F 77% 29.90 in 10.0 mi South 12.7 mph 16.1 mph N/A   Clear
1:15 AM 83.8 °F 92.5 °F 75.9 °F 77% 29.89 in 10.0 mi South 9.2 mph - N/A   Scattered Clouds
1:35 AM 84.0 °F 93.3 °F 76.5 °F 78% 29.89 in 10.0 mi South 9.2 mph - N/A   Mostly Cloudy
2:15 AM 84.2 °F 93.8 °F 76.6 °F 78% 29.89 in 10.0 mi South 9.2 mph - N/A   Mostly Cloudy
2:35 AM 83.8 °F 93.2 °F 76.6 °F 79% 29.89 in 10.0 mi South 9.2 mph - N/A   Mostly Cloudy
2:55 AM 83.8 °F 92.8 °F 76.3 °F 78% 29.89 in 10.0 mi South 9.2 mph - N/A   Mostly Cloudy
3:15 AM 83.5 °F 91.9 °F 76.1 °F 78% 29.89 in 10.0 mi South 8.1 mph - N/A   Scattered Clouds
3:35 AM 83.3 °F 91.4 °F 75.9 °F 78% 29.88 in 10.0 mi South 9.2 mph - N/A   Scattered Clouds
3:55 AM 83.7 °F 92.0 °F 75.7 °F 77% 29.88 in 10.0 mi South 10.4 mph - N/A   Mostly Cloudy
4:15 AM 83.5 °F 91.6 °F 75.7 °F 77% 29.88 in 10.0 mi South 10.4 mph - N/A   Scattered Clouds
4:35 AM 83.3 °F 91.8 °F 76.1 °F 79% 29.88 in 10.0 mi South 9.2 mph - N/A   Scattered Clouds
4:55 AM 82.9 °F 90.8 °F 75.7 °F 79% 29.88 in 10.0 mi South 6.9 mph - N/A   Clear
5:15 AM 82.6 °F 90.2 °F 75.7 °F 80% 29.88 in 10.0 mi South 8.1 mph - N/A   Clear
5:35 AM 82.4 °F 90.1 °F 75.9 °F 81% 29.88 in 10.0 mi South 8.1 mph - N/A   Clear
5:55 AM 82.4 °F 90.1 °F 76.1 °F 81% 29.87 in 10.0 mi South 8.1 mph - N/A   Scattered Clouds
6:15 AM 82.4 °F 90.1 °F 76.1 °F 81% 29.87 in 10.0 mi South 9.2 mph - N/A   Scattered Clouds
6:35 AM 82.6 °F 90.5 °F 76.1 °F 81% 29.87 in 10.0 mi South 10.4 mph - N/A   Scattered Clouds
6:55 AM 82.4 °F 90.1 °F 76.1 °F 81% 29.88 in 10.0 mi South 8.1 mph - N/A   Scattered Clouds
7:15 AM 82.4 °F 90.1 °F 76.1 °F 81% 29.88 in 10.0 mi South 9.2 mph - N/A   Scattered Clouds
7:35 AM 82.6 °F 90.5 °F 76.1 °F 81% 29.89 in 10.0 mi South 5.8 mph - N/A   Scattered Clouds
7:55 AM 83.1 °F 91.6 °F 76.3 °F 80% 29.89 in 10.0 mi South 10.4 mph - N/A   Scattered Clouds
8:15 AM 84.2 °F 93.4 °F 76.5 °F 77% 29.89 in 10.0 mi SSW 11.5 mph - N/A   Clear
8:35 AM 85.3 °F 95.0 °F 76.3 °F 74% 29.89 in 10.0 mi South 11.5 mph 17.3 mph N/A   Clear
8:55 AM 85.8 °F 95.1 °F 75.4 °F 71% 29.89 in 10.0 mi South 13.8 mph - N/A   Clear
9:15 AM 86.7 °F 95.5 °F 74.5 °F 67% 29.90 in 10.0 mi SSW 12.7 mph - N/A   Clear
9:35 AM 88.2 °F 96.4 °F 73.6 °F 62% 29.91 in 10.0 mi South 11.5 mph 16.1 mph N/A   Clear
10:15 AM 89.4 °F 97.8 °F 73.6 °F 59% 29.91 in 10.0 mi South 10.4 mph - N/A   Scattered Clouds
10:35 AM 90.1 °F 98.9 °F 73.6 °F 58% 29.91 in 10.0 mi SSW 12.7 mph 17.3 mph N/A   Scattered Clouds
10:55 AM 90.9 °F 100.0 °F 73.6 °F 57% 29.92 in 10.0 mi SSW 12.7 mph 16.1 mph N/A   Mostly Cloudy
11:15 AM 91.6 °F 99.9 °F 73.0 °F 54% 29.92 in 10.0 mi South 10.4 mph 17.3 mph N/A   Scattered Clouds
11:35 AM 91.9 °F 100.1 °F 72.3 °F 53% 29.92 in 10.0 mi South 13.8 mph 19.6 mph N/A   Clear
11:55 AM 92.5 °F 99.6 °F 71.4 °F 50% 29.91 in 10.0 mi South 17.3 mph - N/A   Clear
12:15 PM 93.0 °F 100.1 °F 71.2 °F 49% 29.91 in 10.0 mi South 15.0 mph 20.7 mph N/A   Clear
12:35 PM 93.9 °F 99.7 °F 69.6 °F 45% 29.90 in 10.0 mi South 11.5 mph 21.9 mph N/A   Clear
12:55 PM 93.9 °F 101.5 °F 71.4 °F 48% 29.89 in 10.0 mi South 11.5 mph 19.6 mph N/A   Clear
1:15 PM 93.7 °F 100.5 °F 70.7 °F 47% 29.89 in 10.0 mi SSE 17.3 mph 21.9 mph N/A   Clear
1:35 PM 93.9 °F 100.3 °F 70.2 °F 46% 29.88 in 10.0 mi South 15.0 mph 21.9 mph N/A   Clear
1:55 PM 93.9 °F 100.3 °F 70.5 °F 46% 29.87 in 10.0 mi South 13.8 mph 21.9 mph N/A   Clear
2:15 PM 94.3 °F 101.0 °F 70.9 °F 46% 29.87 in 10.0 mi SSE 15.0 mph 24.2 mph N/A   Clear
2:35 PM 94.3 °F 99.8 °F 69.6 °F 44% 29.85 in 10.0 mi SSE 18.4 mph - N/A   Clear
2:55 PM 94.6 °F 100.0 °F 69.1 °F 43% 29.85 in 10.0 mi South 15.0 mph 21.9 mph N/A   Clear
3:15 PM 95.0 °F 100.1 °F 68.7 °F 42% 29.84 in 10.0 mi SSE 17.3 mph 21.9 mph N/A   Clear
3:35 PM 94.5 °F 100.8 °F 70.2 °F 45% 29.84 in 10.0 mi SE 13.8 mph 19.6 mph N/A   Clear
3:55 PM 94.1 °F 101.8 °F 71.6 °F 48% 29.84 in 10.0 mi SSE 16.1 mph - N/A   Clear
4:15 PM 93.6 °F 102.5 °F 73.0 °F 51% 29.83 in 10.0 mi SE 17.3 mph 20.7 mph N/A   Clear
4:35 PM 92.8 °F 102.2 °F 73.2 °F 53% 29.83 in 10.0 mi SSE 18.4 mph 24.2 mph N/A   Clear
4:55 PM 92.8 °F 102.2 °F 73.6 °F 53% 29.83 in 10.0 mi SSE 18.4 mph 24.2 mph N/A   Clear
5:15 PM 91.8 °F 101.5 °F 74.3 °F 56% 29.83 in 10.0 mi SE 18.4 mph 23.0 mph N/A   Clear
5:35 PM 91.6 °F 101.1 °F 73.8 °F 56% 29.83 in 10.0 mi SE 19.6 mph 23.0 mph N/A   Clear
5:55 PM 91.4 °F 100.7 °F 73.9 °F 56% 29.82 in 10.0 mi SSE 17.3 mph 23.0 mph N/A   Clear
6:15 PM 90.3 °F 99.9 °F 74.5 °F 59% 29.82 in 10.0 mi SSE 18.4 mph 25.3 mph N/A   Clear
6:35 PM 89.2 °F 99.5 °F 75.2 °F 63% 29.82 in 10.0 mi SE 17.3 mph - N/A   Clear
6:55 PM 88.5 °F 98.8 °F 75.4 °F 65% 29.83 in 10.0 mi SE 17.3 mph - N/A   Clear
7:15 PM 87.6 °F 97.1 °F 75.0 °F 66% 29.83 in 10.0 mi SE 17.3 mph - N/A   Clear
7:35 PM 86.7 °F 95.9 °F 75.2 °F 68% 29.83 in 10.0 mi SE 15.0 mph - N/A   Clear
7:55 PM 85.8 °F 95.1 °F 75.6 °F 71% 29.83 in 10.0 mi SE 16.1 mph - N/A   Clear
8:15 PM 85.3 °F 95.0 °F 76.3 °F 74% 29.84 in 10.0 mi SE 13.8 mph - N/A   Clear
8:35 PM 85.1 °F 94.9 °F 76.5 °F 75% 29.84 in 10.0 mi SSE 12.7 mph 17.3 mph N/A   Scattered Clouds
8:55 PM 84.9 °F 94.5 °F 76.1 °F 75% 29.84 in 10.0 mi SSE 12.7 mph - N/A   Clear
9:15 PM 84.7 °F 93.6 °F 75.7 °F 74% 29.85 in 10.0 mi SSE 12.7 mph 18.4 mph N/A   Clear
9:35 PM 84.6 °F 93.5 °F 75.9 °F 75% 29.85 in 10.0 mi SSE 10.4 mph - N/A   Clear
9:55 PM 84.4 °F 93.9 °F 76.3 °F 77% 29.85 in 10.0 mi SSE 11.5 mph - N/A   Clear
10:15 PM 84.2 °F 93.8 °F 76.6 °F 78% 29.86 in 10.0 mi SSE 11.5 mph - N/A   Clear
10:35 PM 84.2 °F 93.8 °F 76.8 °F 78% 29.87 in 10.0 mi SSE 12.7 mph - N/A   Clear
10:55 PM 84.2 °F 93.8 °F 76.8 °F 78% 29.87 in 10.0 mi SSE 12.7 mph 18.4 mph N/A   Clear
11:15 PM 84.2 °F 93.4 °F 76.5 °F 77% 29.87 in 10.0 mi SSE 10.4 mph 17.3 mph N/A   Clear
11:35 PM 84.2 °F 93.4 °F 76.3 °F 77% 29.87 in 10.0 mi South 11.5 mph 17.3 mph N/A   Clear
11:55 PM 84.2 °F 93.4 °F 76.3 °F 77% 29.87 in 10.0 mi South 10.4 mph 18.4 mph N/A   Clear